Time,TemperatureF,DewpointF,PressureIn,WindDirection,WindDirectionDegrees,WindSpeedMPH,WindSpeedGustMPH,Humidity,HourlyPrecipIn,Conditions,Clouds,dailyrainin,SoftwareType,DateUTC
2013-03-22 00:00:00,27.5,21.2,29.95,SSW,197,0.0,2.0,77,0.00,,,0.00,Wunderground v.1.15,2013-03-22 04:00:00,
2013-03-22 00:03:00,27.5,20.9,29.95,SSE,167,1.0,2.0,76,0.00,,,0.00,Wunderground v.1.15,2013-03-22 04:03:00,
2013-03-22 00:04:00,27.5,20.9,29.95,SE,132,1.0,6.0,76,0.00,,,0.00,Wunderground v.1.15,2013-03-22 04:04:00,
2013-03-22 00:07:00,27.5,20.9,29.95,SSE,161,0.0,6.0,76,0.00,,,0.00,Wunderground v.1.15,2013-03-22 04:07:00,
2013-03-22 00:13:00,27.6,21.0,29.95,East,92,0.0,0.0,76,0.00,,,0.00,Wunderground v.1.15,2013-03-22 04:13:00,
2013-03-22 00:18:00,27.5,20.9,29.95,East,92,0.0,0.0,76,0.00,,,0.00,Wunderground v.1.15,2013-03-22 04:18:00,
2013-03-22 00:23:00,27.5,20.9,29.95,East,92,0.0,0.0,76,0.00,,,0.00,Wunderground v.1.15,2013-03-22 04:23:00,
2013-03-22 00:29:00,27.5,20.9,29.95,South,190,0.0,0.0,76,0.00,,,0.00,Wunderground v.1.15,2013-03-22 04:29:00,
2013-03-22 00:35:00,27.6,21.3,29.95,SE,145,0.0,2.0,77,0.00,,,0.00,Wunderground v.1.15,2013-03-22 04:35:00,
2013-03-22 00:40:00,27.6,21.0,29.95,SE,145,0.0,0.0,76,0.00,,,0.00,Wunderground v.1.15,2013-03-22 04:40:00,
2013-03-22 00:46:00,27.6,21.3,29.95,SE,145,0.0,0.0,77,0.00,,,0.00,Wunderground v.1.15,2013-03-22 04:46:00,
2013-03-22 00:52:00,27.6,21.0,29.95,SE,145,0.0,0.0,76,0.00,,,0.00,Wunderground v.1.15,2013-03-22 04:52:00,
2013-03-22 00:58:00,27.8,21.2,29.95,East,85,0.0,0.0,76,0.00,,,0.00,Wunderground v.1.15,2013-03-22 04:58:00,
2013-03-22 01:03:00,27.9,21.3,29.95,SE,136,0.0,0.0,76,0.00,,,0.00,Wunderground v.1.15,2013-03-22 05:03:00,
2013-03-22 01:09:00,28.0,21.4,29.95,SE,132,1.0,3.0,76,0.00,,,0.00,Wunderground v.1.15,2013-03-22 05:09:00,
2013-03-22 01:15:00,28.0,21.7,29.95,South,180,1.0,3.0,77,0.00,,,0.00,Wunderground v.1.15,2013-03-22 05:15:00,
2013-03-22 01:20:00,27.9,21.6,29.95,SE,143,1.0,1.0,77,0.00,,,0.00,Wunderground v.1.15,2013-03-22 05:20:00,
2013-03-22 01:25:00,27.9,21.6,29.95,SE,138,0.0,1.0,77,0.00,,,0.00,Wunderground v.1.15,2013-03-22 05:25:00,
2013-03-22 01:32:00,27.9,21.6,29.95,SE,131,0.0,1.0,77,0.00,,,0.00,Wunderground v.1.15,2013-03-22 05:32:00,
2013-03-22 01:38:00,27.9,21.6,29.95,SSE,159,1.0,1.0,77,0.00,,,0.00,Wunderground v.1.15,2013-03-22 05:38:00,
2013-03-22 01:44:00,27.9,21.3,29.95,SE,139,1.0,3.0,76,0.00,,,0.00,Wunderground v.1.15,2013-03-22 05:44:00,
2013-03-22 01:49:00,27.9,21.6,29.95,SE,124,0.0,3.0,77,0.00,,,0.00,Wunderground v.1.15,2013-03-22 05:49:00,
2013-03-22 01:55:00,27.8,21.2,29.95,East,84,0.0,0.0,76,0.00,,,0.00,Wunderground v.1.15,2013-03-22 05:55:00,
2013-03-22 02:00:00,27.7,21.4,29.95,South,182,0.0,0.0,77,0.00,,,0.00,Wunderground v.1.15,2013-03-22 06:00:00,
2013-03-22 02:07:00,27.7,21.4,29.95,ESE,107,1.0,2.0,77,0.00,,,0.00,Wunderground v.1.15,2013-03-22 06:07:00,
2013-03-22 02:12:00,27.7,21.4,29.95,SE,145,1.0,3.0,77,0.00,,,0.00,Wunderground v.1.15,2013-03-22 06:12:00,
2013-03-22 02:17:00,27.7,21.1,29.95,ESE,119,1.0,3.0,76,0.00,,,0.00,Wunderground v.1.15,2013-03-22 06:17:00,
2013-03-22 02:23:00,27.8,21.2,29.95,SE,132,0.0,1.0,76,0.00,,,0.00,Wunderground v.1.15,2013-03-22 06:23:00,
2013-03-22 02:28:00,27.8,21.2,29.95,SE,132,0.0,1.0,76,0.00,,,0.00,Wunderground v.1.15,2013-03-22 06:28:00,
2013-03-22 02:33:00,27.8,21.2,29.95,South,169,0.0,2.0,76,0.00,,,0.00,Wunderground v.1.15,2013-03-22 06:33:00,
2013-03-22 02:39:00,27.9,21.3,29.95,ESE,120,0.0,2.0,76,0.00,,,0.00,Wunderground v.1.15,2013-03-22 06:39:00,
2013-03-22 02:44:00,27.9,21.0,29.95,SE,127,0.0,0.0,75,0.00,,,0.00,Wunderground v.1.15,2013-03-22 06:44:00,
2013-03-22 02:50:00,27.9,21.3,29.95,SSE,151,0.0,0.0,76,0.00,,,0.00,Wunderground v.1.15,2013-03-22 06:50:00,
2013-03-22 02:55:00,28.0,21.1,29.95,SE,134,0.0,1.0,75,0.00,,,0.00,Wunderground v.1.15,2013-03-22 06:55:00,
2013-03-22 03:00:00,28.0,21.1,29.95,SSE,163,0.0,1.0,75,0.00,,,0.00,Wunderground v.1.15,2013-03-22 07:00:00,
2013-03-22 03:06:00,28.0,21.1,29.95,ENE,63,0.0,1.0,75,0.00,,,0.00,Wunderground v.1.15,2013-03-22 07:06:00,
2013-03-22 03:12:00,28.0,21.1,29.95,South,188,1.0,1.0,75,0.00,,,0.00,Wunderground v.1.15,2013-03-22 07:12:00,
2013-03-22 03:18:00,28.0,21.1,29.95,SE,146,1.0,3.0,75,0.00,,,0.00,Wunderground v.1.15,2013-03-22 07:18:00,
2013-03-22 03:23:00,28.1,21.2,29.95,SE,124,0.0,1.0,75,0.00,,,0.00,Wunderground v.1.15,2013-03-22 07:23:00,
2013-03-22 03:29:00,28.1,21.2,29.94,SSW,195,0.0,2.0,75,0.00,,,0.00,Wunderground v.1.15,2013-03-22 07:29:00,
2013-03-22 03:34:00,28.0,21.1,29.95,SSE,154,0.0,0.0,75,0.00,,,0.00,Wunderground v.1.15,2013-03-22 07:34:00,
2013-03-22 03:39:00,28.0,21.1,29.94,SW,215,1.0,1.0,75,0.00,,,0.00,Wunderground v.1.15,2013-03-22 07:39:00,
2013-03-22 03:45:00,28.0,21.1,29.94,ESE,107,1.0,1.0,75,0.00,,,0.00,Wunderground v.1.15,2013-03-22 07:45:00,
2013-03-22 03:50:00,28.0,21.1,29.94,ESE,113,1.0,1.0,75,0.00,,,0.00,Wunderground v.1.15,2013-03-22 07:50:00,
2013-03-22 03:57:00,28.0,21.1,29.94,ESE,113,0.0,2.0,75,0.00,,,0.00,Wunderground v.1.15,2013-03-22 07:57:00,
2013-03-22 04:03:00,28.1,20.9,29.94,SE,126,0.0,4.0,74,0.00,,,0.00,Wunderground v.1.15,2013-03-22 08:03:00,
2013-03-22 04:08:00,28.1,20.9,29.94,ESE,109,1.0,4.0,74,0.00,,,0.00,Wunderground v.1.15,2013-03-22 08:08:00,
2013-03-22 04:13:00,28.1,20.9,29.94,SE,144,0.0,1.0,74,0.00,,,0.00,Wunderground v.1.15,2013-03-22 08:13:00,
2013-03-22 04:19:00,28.1,20.9,29.94,SE,126,0.0,2.0,74,0.00,,,0.00,Wunderground v.1.15,2013-03-22 08:19:00,
2013-03-22 04:24:00,28.1,20.9,29.94,SE,126,0.0,1.0,74,0.00,,,0.00,Wunderground v.1.15,2013-03-22 08:24:00,
2013-03-22 04:30:00,28.1,20.9,29.94,SE,128,0.0,0.0,74,0.00,,,0.00,Wunderground v.1.15,2013-03-22 08:30:00,
2013-03-22 04:35:00,28.1,20.9,29.94,SE,127,0.0,1.0,74,0.00,,,0.00,Wunderground v.1.15,2013-03-22 08:35:00,
2013-03-22 04:40:00,28.0,20.8,29.94,ESE,112,0.0,0.0,74,0.00,,,0.00,Wunderground v.1.15,2013-03-22 08:40:00,
2013-03-22 04:47:00,28.0,20.8,29.94,SE,124,0.0,3.0,74,0.00,,,0.00,Wunderground v.1.15,2013-03-22 08:47:00,
2013-03-22 04:52:00,28.0,20.8,29.94,SSE,153,0.0,0.0,74,0.00,,,0.00,Wunderground v.1.15,2013-03-22 08:52:00,
2013-03-22 04:57:00,27.9,20.7,29.94,East,84,0.0,1.0,74,0.00,,,0.00,Wunderground v.1.15,2013-03-22 08:57:00,
2013-03-22 05:03:00,27.9,20.7,29.94,SSE,162,1.0,3.0,74,0.00,,,0.00,Wunderground v.1.15,2013-03-22 09:03:00,
2013-03-22 05:09:00,27.7,20.2,29.95,SSE,162,1.0,3.0,73,0.00,,,0.00,Wunderground v.1.15,2013-03-22 09:09:00,
2013-03-22 05:14:00,27.6,20.1,29.95,ESE,122,0.0,0.0,73,0.00,,,0.00,Wunderground v.1.15,2013-03-22 09:14:00,
2013-03-22 05:19:00,27.4,20.2,29.95,SE,126,0.0,2.0,74,0.00,,,0.00,Wunderground v.1.15,2013-03-22 09:19:00,
2013-03-22 05:25:00,27.1,19.9,29.95,SE,126,0.0,0.0,74,0.00,,,0.00,Wunderground v.1.15,2013-03-22 09:25:00,
2013-03-22 05:30:00,27.0,19.8,29.95,SE,126,0.0,0.0,74,0.00,,,0.00,Wunderground v.1.15,2013-03-22 09:30:00,
2013-03-22 05:36:00,26.8,19.9,29.95,ENE,65,0.0,1.0,75,0.00,,,0.00,Wunderground v.1.15,2013-03-22 09:36:00,
2013-03-22 05:42:00,26.7,19.8,29.95,ESE,113,0.0,0.0,75,0.00,,,0.00,Wunderground v.1.15,2013-03-22 09:42:00,
2013-03-22 05:47:00,26.7,19.8,29.95,ESE,113,0.0,0.0,75,0.00,,,0.00,Wunderground v.1.15,2013-03-22 09:47:00,
2013-03-22 05:53:00,26.8,19.6,29.95,ESE,117,0.0,0.0,74,0.00,,,0.00,Wunderground v.1.15,2013-03-22 09:53:00,
2013-03-22 05:58:00,26.9,19.7,29.96,ESE,117,0.0,0.0,74,0.00,,,0.00,Wunderground v.1.15,2013-03-22 09:58:00,
2013-03-22 06:04:00,26.9,19.7,29.96,ESE,117,0.0,0.0,74,0.00,,,0.00,Wunderground v.1.15,2013-03-22 10:04:00,
2013-03-22 06:09:00,27.0,19.8,29.96,ESE,117,0.0,0.0,74,0.00,,,0.00,Wunderground v.1.15,2013-03-22 10:09:00,
2013-03-22 06:15:00,27.1,19.9,29.96,ESE,117,0.0,0.0,74,0.00,,,0.00,Wunderground v.1.15,2013-03-22 10:15:00,
2013-03-22 06:20:00,27.2,19.7,29.96,SE,128,0.0,0.0,73,0.00,,,0.00,Wunderground v.1.15,2013-03-22 10:20:00,
2013-03-22 06:26:00,27.3,19.8,29.96,SE,137,1.0,3.0,73,0.00,,,0.00,Wunderground v.1.15,2013-03-22 10:26:00,
2013-03-22 06:32:00,27.3,19.8,29.96,NNE,22,1.0,1.0,73,0.00,,,0.00,Wunderground v.1.15,2013-03-22 10:32:00,
2013-03-22 06:38:00,27.2,19.7,29.96,South,171,1.0,2.0,73,0.00,,,0.00,Wunderground v.1.15,2013-03-22 10:38:00,
2013-03-22 06:43:00,27.2,20.0,29.96,South,177,1.0,1.0,74,0.00,,,0.00,Wunderground v.1.15,2013-03-22 10:43:00,
2013-03-22 06:49:00,27.1,19.9,29.97,SE,134,0.0,1.0,74,0.00,,,0.00,Wunderground v.1.15,2013-03-22 10:49:00,
2013-03-22 06:54:00,27.0,19.8,29.97,East,85,0.0,1.0,74,0.00,,,0.00,Wunderground v.1.15,2013-03-22 10:54:00,
2013-03-22 07:00:00,26.9,19.4,29.97,ESE,121,0.0,0.0,73,0.00,,,0.00,Wunderground v.1.15,2013-03-22 11:00:00,
2013-03-22 07:06:00,26.7,19.2,29.97,ESE,121,0.0,0.0,73,0.00,,,0.00,Wunderground v.1.15,2013-03-22 11:06:00,
2013-03-22 07:12:00,26.5,19.3,29.97,ESE,121,0.0,0.0,74,0.00,,,0.00,Wunderground v.1.15,2013-03-22 11:12:00,
2013-03-22 07:18:00,26.3,19.1,29.98,SSE,153,0.0,1.0,74,0.00,,,0.00,Wunderground v.1.15,2013-03-22 11:18:00,
2013-03-22 07:23:00,26.2,19.4,29.98,SE,130,0.0,2.0,75,0.00,,,0.00,Wunderground v.1.15,2013-03-22 11:23:00,
2013-03-22 07:29:00,26.1,19.3,29.98,SE,130,0.0,2.0,75,0.00,,,0.00,Wunderground v.1.15,2013-03-22 11:29:00,
2013-03-22 07:34:00,26.1,19.6,29.98,SE,138,0.0,1.0,76,0.00,,,0.00,Wunderground v.1.15,2013-03-22 11:34:00,
2013-03-22 07:39:00,26.2,19.7,29.98,East,99,0.0,2.0,76,0.00,,,0.00,Wunderground v.1.15,2013-03-22 11:39:00,
2013-03-22 07:45:00,26.3,19.8,29.99,NE,40,0.0,0.0,76,0.00,,,0.00,Wunderground v.1.15,2013-03-22 11:45:00,
2013-03-22 07:50:00,26.5,20.0,29.99,SE,144,0.0,0.0,76,0.00,,,0.00,Wunderground v.1.15,2013-03-22 11:50:00,
2013-03-22 07:56:00,26.7,20.1,29.99,South,190,0.0,2.0,76,0.00,,,0.00,Wunderground v.1.15,2013-03-22 11:56:00,
2013-03-22 08:01:00,26.8,20.2,29.99,NE,54,1.0,1.0,76,0.00,,,0.00,Wunderground v.1.15,2013-03-22 12:01:00,
2013-03-22 08:07:00,26.9,20.0,29.99,East,93,0.0,1.0,75,0.00,,,0.00,Wunderground v.1.15,2013-03-22 12:07:00,
2013-03-22 08:13:00,27.1,20.2,29.99,ESE,118,0.0,3.0,75,0.00,,,0.00,Wunderground v.1.15,2013-03-22 12:13:00,
2013-03-22 08:18:00,27.2,20.0,29.99,ESE,118,0.0,3.0,74,0.00,,,0.00,Wunderground v.1.15,2013-03-22 12:18:00,
2013-03-22 08:23:00,27.4,19.9,29.99,ESE,121,0.0,1.0,73,0.00,,,0.00,Wunderground v.1.15,2013-03-22 12:23:00,
2013-03-22 08:29:00,27.5,20.0,29.99,ESE,115,0.0,3.0,73,0.00,,,0.00,Wunderground v.1.15,2013-03-22 12:29:00,
2013-03-22 08:34:00,27.6,20.1,29.99,ESE,119,0.0,1.0,73,0.00,,,0.00,Wunderground v.1.15,2013-03-22 12:34:00,
2013-03-22 08:40:00,27.9,20.4,30.00,SSE,153,0.0,0.0,73,0.00,,,0.00,Wunderground v.1.15,2013-03-22 12:40:00,
2013-03-22 08:45:00,28.1,20.2,30.00,South,178,0.0,1.0,72,0.00,,,0.00,Wunderground v.1.15,2013-03-22 12:45:00,
2013-03-22 08:52:00,28.3,20.1,30.00,South,182,0.0,1.0,71,0.00,,,0.00,Wunderground v.1.15,2013-03-22 12:52:00,
2013-03-22 08:57:00,28.4,19.9,30.00,East,95,0.0,2.0,70,0.00,,,0.00,Wunderground v.1.15,2013-03-22 12:57:00,
2013-03-22 09:03:00,28.5,20.0,30.00,SSE,159,1.0,2.0,70,0.00,,,0.00,Wunderground v.1.15,2013-03-22 13:03:00,
2013-03-22 09:08:00,28.7,20.1,30.00,SE,130,1.0,2.0,70,0.00,,,0.00,Wunderground v.1.15,2013-03-22 13:08:00,
2013-03-22 09:13:00,28.8,20.2,30.00,West,276,1.0,2.0,70,0.00,,,0.00,Wunderground v.1.15,2013-03-22 13:13:00,
2013-03-22 09:19:00,28.8,20.2,30.00,SE,144,1.0,2.0,70,0.00,,,0.00,Wunderground v.1.15,2013-03-22 13:19:00,
2013-03-22 09:24:00,29.0,20.4,30.00,SSE,150,1.0,2.0,70,0.00,,,0.00,Wunderground v.1.15,2013-03-22 13:24:00,
2013-03-22 09:30:00,29.0,20.4,30.00,South,183,1.0,1.0,70,0.00,,,0.00,Wunderground v.1.15,2013-03-22 13:30:00,
2013-03-22 09:37:00,29.0,20.1,30.00,East,82,0.0,3.0,69,0.00,,,0.00,Wunderground v.1.15,2013-03-22 13:37:00,
2013-03-22 09:42:00,29.0,20.4,30.00,East,91,1.0,1.0,70,0.00,,,0.00,Wunderground v.1.15,2013-03-22 13:42:00,
2013-03-22 09:48:00,29.0,20.4,30.00,South,182,0.0,3.0,70,0.00,,,0.00,Wunderground v.1.15,2013-03-22 13:48:00,
2013-03-22 09:54:00,29.1,20.5,30.01,SE,128,0.0,1.0,70,0.00,,,0.00,Wunderground v.1.15,2013-03-22 13:54:00,
2013-03-22 09:59:00,29.1,20.2,30.01,ESE,112,1.0,3.0,69,0.00,,,0.00,Wunderground v.1.15,2013-03-22 13:59:00,
2013-03-22 10:05:00,29.4,20.5,30.01,SSE,148,0.0,4.0,69,0.00,,,0.00,Wunderground v.1.15,2013-03-22 14:05:00,
2013-03-22 10:12:00,29.6,20.7,30.01,East,88,0.0,0.0,69,0.00,,,0.00,Wunderground v.1.15,2013-03-22 14:12:00,
2013-03-22 10:18:00,29.7,20.1,30.01,SSE,164,1.0,4.0,67,0.00,,,0.00,Wunderground v.1.15,2013-03-22 14:18:00,
2013-03-22 10:23:00,29.7,20.8,30.01,NE,34,1.0,2.0,69,0.00,,,0.00,Wunderground v.1.15,2013-03-22 14:23:00,
2013-03-22 10:29:00,29.7,20.4,30.01,NW,307,1.0,2.0,68,0.00,,,0.00,Wunderground v.1.15,2013-03-22 14:29:00,
2013-03-22 10:34:00,29.7,20.4,30.01,East,79,0.0,1.0,68,0.00,,,0.00,Wunderground v.1.15,2013-03-22 14:34:00,
2013-03-22 10:40:00,29.8,20.2,30.01,WSW,242,1.0,1.0,67,0.00,,,0.00,Wunderground v.1.15,2013-03-22 14:40:00,
2013-03-22 10:45:00,29.8,20.2,30.01,SSE,161,1.0,3.0,67,0.00,,,0.00,Wunderground v.1.15,2013-03-22 14:45:00,
2013-03-22 10:50:00,29.9,20.6,30.01,SSE,150,1.0,1.0,68,0.00,,,0.00,Wunderground v.1.15,2013-03-22 14:50:00,
2013-03-22 10:56:00,30.1,20.8,30.01,East,97,1.0,2.0,68,0.00,,,0.00,Wunderground v.1.15,2013-03-22 14:56:00,
2013-03-22 11:02:00,30.2,20.6,30.01,SE,146,1.0,1.0,67,0.00,,,0.00,Wunderground v.1.15,2013-03-22 15:02:00,
2013-03-22 11:08:00,30.2,20.2,30.01,East,88,1.0,3.0,66,0.00,,,0.00,Wunderground v.1.15,2013-03-22 15:08:00,
2013-03-22 11:13:00,30.2,20.2,30.01,ESE,117,1.0,1.0,66,0.00,,,0.00,Wunderground v.1.15,2013-03-22 15:13:00,
2013-03-22 11:18:00,30.2,20.2,30.01,NE,42,1.0,3.0,66,0.00,,,0.00,Wunderground v.1.15,2013-03-22 15:18:00,
2013-03-22 11:24:00,30.3,20.3,30.01,SE,143,1.0,2.0,66,0.00,,,0.00,Wunderground v.1.15,2013-03-22 15:24:00,
2013-03-22 11:29:00,30.4,20.4,30.01,WSW,244,0.0,3.0,66,0.00,,,0.00,Wunderground v.1.15,2013-03-22 15:29:00,
2013-03-22 11:35:00,30.4,20.4,30.02,SE,134,1.0,5.0,66,0.00,,,0.00,Wunderground v.1.15,2013-03-22 15:35:00,
2013-03-22 11:40:00,30.3,20.3,30.02,ESE,117,1.0,1.0,66,0.00,,,0.00,Wunderground v.1.15,2013-03-22 15:40:00,
2013-03-22 11:47:00,30.0,20.4,30.02,East,94,1.0,3.0,67,0.00,,,0.00,Wunderground v.1.15,2013-03-22 15:47:00,
2013-03-22 11:52:00,30.0,20.4,30.02,SSE,167,1.0,1.0,67,0.00,,,0.00,Wunderground v.1.15,2013-03-22 15:52:00,
2013-03-22 11:58:00,30.0,20.4,30.02,East,94,1.0,2.0,67,0.00,,,0.00,Wunderground v.1.15,2013-03-22 15:58:00,
2013-03-22 12:03:00,30.2,20.6,30.02,SE,138,1.0,1.0,67,0.00,,,0.00,Wunderground v.1.15,2013-03-22 16:03:00,
2013-03-22 12:09:00,30.3,20.6,30.02,ESE,103,0.0,1.0,67,0.00,,,0.00,Wunderground v.1.15,2013-03-22 16:09:00,
2013-03-22 12:14:00,30.6,20.9,30.02,ESE,111,0.0,0.0,67,0.00,,,0.00,Wunderground v.1.15,2013-03-22 16:14:00,
2013-03-22 12:20:00,30.8,21.1,30.02,SSE,153,1.0,1.0,67,0.00,,,0.00,Wunderground v.1.15,2013-03-22 16:20:00,
2013-03-22 12:25:00,31.0,21.0,30.02,ESE,102,1.0,1.0,66,0.00,,,0.00,Wunderground v.1.15,2013-03-22 16:25:00,
2013-03-22 12:31:00,31.3,21.6,30.01,East,87,1.0,6.0,67,0.00,,,0.00,Wunderground v.1.15,2013-03-22 16:31:00,
2013-03-22 12:37:00,31.9,21.1,30.01,ENE,65,1.0,6.0,64,0.00,,,0.00,Wunderground v.1.15,2013-03-22 16:37:00,
2013-03-22 12:43:00,32.5,21.3,30.01,ENE,65,1.0,1.0,63,0.00,,,0.00,Wunderground v.1.15,2013-03-22 16:43:00,
2013-03-22 12:48:00,32.6,20.6,30.01,SE,136,1.0,4.0,61,0.00,,,0.00,Wunderground v.1.15,2013-03-22 16:48:00,
2013-03-22 12:54:00,32.6,20.6,30.01,SE,142,1.0,1.0,61,0.00,,,0.00,Wunderground v.1.15,2013-03-22 16:54:00,
2013-03-22 12:59:00,32.5,20.5,30.02,South,170,1.0,2.0,61,0.00,,,0.00,Wunderground v.1.15,2013-03-22 16:59:00,
2013-03-22 13:05:00,32.1,20.5,30.02,SSW,196,1.0,2.0,62,0.00,,,0.00,Wunderground v.1.15,2013-03-22 17:05:00,
2013-03-22 13:10:00,32.1,20.2,30.02,East,100,1.0,1.0,61,0.00,,,0.00,Wunderground v.1.15,2013-03-22 17:10:00,
2013-03-22 13:15:00,32.2,20.2,30.02,NNE,19,1.0,1.0,61,0.00,,,0.00,Wunderground v.1.15,2013-03-22 17:15:00,
2013-03-22 13:20:00,32.2,20.6,30.01,NE,44,1.0,1.0,62,0.00,,,0.00,Wunderground v.1.15,2013-03-22 17:20:00,
2013-03-22 13:27:00,32.2,21.4,30.02,South,190,1.0,1.0,64,0.00,,,0.00,Wunderground v.1.15,2013-03-22 17:27:00,
2013-03-22 13:33:00,32.7,21.9,30.02,SE,134,0.0,0.0,64,0.00,,,0.00,Wunderground v.1.15,2013-03-22 17:33:00,
2013-03-22 13:39:00,33.0,22.1,30.02,ENE,78,0.0,1.0,64,0.00,,,0.00,Wunderground v.1.15,2013-03-22 17:39:00,
2013-03-22 13:44:00,33.0,21.8,30.02,NNE,27,1.0,3.0,63,0.00,,,0.00,Wunderground v.1.15,2013-03-22 17:44:00,
2013-03-22 13:49:00,33.0,22.1,30.02,South,175,1.0,3.0,64,0.00,,,0.00,Wunderground v.1.15,2013-03-22 17:49:00,
2013-03-22 13:54:00,33.3,23.2,30.02,SE,127,1.0,3.0,66,0.00,,,0.00,Wunderground v.1.15,2013-03-22 17:54:00,
2013-03-22 14:00:00,33.8,22.9,30.02,SE,146,1.0,1.0,64,0.00,,,0.00,Wunderground v.1.15,2013-03-22 18:00:00,
2013-03-22 14:06:00,34.0,22.7,30.02,SE,128,0.0,1.0,63,0.00,,,0.00,Wunderground v.1.15,2013-03-22 18:06:00,
2013-03-22 14:12:00,34.2,22.1,30.02,WNW,288,1.0,1.0,61,0.00,,,0.00,Wunderground v.1.15,2013-03-22 18:12:00,
2013-03-22 14:18:00,34.3,21.4,30.02,South,183,1.0,3.0,59,0.00,,,0.00,Wunderground v.1.15,2013-03-22 18:18:00,
2013-03-22 14:23:00,34.6,22.5,30.01,SE,138,0.0,1.0,61,0.00,,,0.00,Wunderground v.1.15,2013-03-22 18:23:00,
2013-03-22 14:29:00,34.6,21.7,30.01,ESE,106,1.0,3.0,59,0.00,,,0.00,Wunderground v.1.15,2013-03-22 18:29:00,
2013-03-22 14:34:00,34.4,21.1,30.01,NNW,329,2.0,3.0,58,0.00,,,0.00,Wunderground v.1.15,2013-03-22 18:34:00,
2013-03-22 14:39:00,34.4,21.5,30.01,SSE,162,1.0,3.0,59,0.00,,,0.00,Wunderground v.1.15,2013-03-22 18:39:00,
2013-03-22 14:44:00,34.3,21.4,30.01,ESE,113,1.0,2.0,59,0.00,,,0.00,Wunderground v.1.15,2013-03-22 18:44:00,
2013-03-22 14:50:00,34.1,21.3,30.01,SE,141,1.0,1.0,59,0.00,,,0.00,Wunderground v.1.15,2013-03-22 18:50:00,
2013-03-22 14:56:00,34.1,21.3,30.01,SSE,167,1.0,1.0,59,0.00,,,0.00,Wunderground v.1.15,2013-03-22 18:56:00,
2013-03-22 15:02:00,34.2,21.7,30.01,SE,137,0.0,1.0,60,0.00,,,0.00,Wunderground v.1.15,2013-03-22 19:02:00,
2013-03-22 15:07:00,33.9,20.7,30.01,SSE,153,1.0,4.0,58,0.00,,,0.00,Wunderground v.1.15,2013-03-22 19:07:00,
2013-03-22 15:13:00,34.1,21.7,30.01,SSW,198,1.0,3.0,60,0.00,,,0.00,Wunderground v.1.15,2013-03-22 19:13:00,
2013-03-22 15:18:00,34.8,21.5,30.01,NE,35,2.0,7.0,58,0.00,,,0.00,Wunderground v.1.15,2013-03-22 19:18:00,
2013-03-22 15:23:00,35.0,22.1,30.01,East,92,1.0,2.0,59,0.00,,,0.00,Wunderground v.1.15,2013-03-22 19:23:00,
2013-03-22 15:29:00,35.1,21.4,30.01,ESE,115,1.0,3.0,57,0.00,,,0.00,Wunderground v.1.15,2013-03-22 19:29:00,
2013-03-22 15:34:00,35.2,21.1,30.00,ESE,105,1.0,1.0,56,0.00,,,0.00,Wunderground v.1.15,2013-03-22 19:34:00,
2013-03-22 15:39:00,35.6,21.4,30.00,ESE,111,0.0,2.0,56,0.00,,,0.00,Wunderground v.1.15,2013-03-22 19:39:00,
2013-03-22 15:45:00,36.0,21.8,30.01,ESE,108,1.0,3.0,56,0.00,,,0.00,Wunderground v.1.15,2013-03-22 19:45:00,
2013-03-22 15:51:00,36.2,21.6,30.01,SSE,168,0.0,0.0,55,0.00,,,0.00,Wunderground v.1.15,2013-03-22 19:51:00,
2013-03-22 15:57:00,36.2,22.4,30.01,East,95,1.0,3.0,57,0.00,,,0.00,Wunderground v.1.15,2013-03-22 19:57:00,
2013-03-22 16:03:00,35.9,21.7,30.01,North,350,1.0,3.0,56,0.00,,,0.00,Wunderground v.1.15,2013-03-22 20:03:00,
2013-03-22 16:08:00,35.9,21.7,30.01,ESE,103,1.0,3.0,56,0.00,,,0.00,Wunderground v.1.15,2013-03-22 20:08:00,
2013-03-22 16:13:00,35.9,21.3,30.01,SE,142,0.0,3.0,55,0.00,,,0.00,Wunderground v.1.15,2013-03-22 20:13:00,
2013-03-22 16:18:00,35.6,21.0,30.01,SE,125,1.0,3.0,55,0.00,,,0.00,Wunderground v.1.15,2013-03-22 20:18:00,
2013-03-22 16:23:00,35.5,21.8,30.01,ENE,75,1.0,3.0,57,0.00,,,0.00,Wunderground v.1.15,2013-03-22 20:23:00,
2013-03-22 16:29:00,35.5,21.3,30.01,East,101,0.0,3.0,56,0.00,,,0.00,Wunderground v.1.15,2013-03-22 20:29:00,
2013-03-22 16:34:00,35.4,21.2,30.01,South,187,1.0,3.0,56,0.00,,,0.00,Wunderground v.1.15,2013-03-22 20:34:00,
2013-03-22 16:40:00,35.5,21.3,30.01,East,98,1.0,1.0,56,0.00,,,0.00,Wunderground v.1.15,2013-03-22 20:40:00,
2013-03-22 16:45:00,35.4,21.7,30.01,ESE,110,1.0,5.0,57,0.00,,,0.00,Wunderground v.1.15,2013-03-22 20:45:00,
2013-03-22 16:50:00,35.2,21.9,30.01,SE,126,1.0,1.0,58,0.00,,,0.00,Wunderground v.1.15,2013-03-22 20:50:00,
2013-03-22 16:57:00,35.0,21.3,30.01,ESE,119,1.0,2.0,57,0.00,,,0.00,Wunderground v.1.15,2013-03-22 20:57:00,
2013-03-22 17:02:00,35.0,21.7,30.02,SE,128,1.0,2.0,58,0.00,,,0.00,Wunderground v.1.15,2013-03-22 21:02:00,
2013-03-22 17:08:00,35.0,21.3,30.01,NNE,30,1.0,4.0,57,0.00,,,0.00,Wunderground v.1.15,2013-03-22 21:08:00,
2013-03-22 17:13:00,34.8,21.1,30.01,SSE,148,1.0,1.0,57,0.00,,,0.00,Wunderground v.1.15,2013-03-22 21:13:00,
2013-03-22 17:19:00,34.7,20.6,30.02,West,263,1.0,4.0,56,0.00,,,0.00,Wunderground v.1.15,2013-03-22 21:19:00,
2013-03-22 17:24:00,34.6,20.9,30.02,East,96,1.0,3.0,57,0.00,,,0.00,Wunderground v.1.15,2013-03-22 21:24:00,
2013-03-22 17:30:00,34.6,21.7,30.02,ESE,107,0.0,0.0,59,0.00,,,0.00,Wunderground v.1.15,2013-03-22 21:30:00,
2013-03-22 17:35:00,34.5,22.0,30.02,SE,129,0.0,0.0,60,0.00,,,0.00,Wunderground v.1.15,2013-03-22 21:35:00,
2013-03-22 17:41:00,34.4,21.1,30.02,NE,52,1.0,1.0,58,0.00,,,0.00,Wunderground v.1.15,2013-03-22 21:41:00,
2013-03-22 17:47:00,34.3,21.0,30.02,SE,141,1.0,3.0,58,0.00,,,0.00,Wunderground v.1.15,2013-03-22 21:47:00,
2013-03-22 17:52:00,34.3,21.0,30.02,South,182,1.0,1.0,58,0.00,,,0.00,Wunderground v.1.15,2013-03-22 21:52:00,
2013-03-22 17:57:00,34.1,20.9,30.02,SSE,164,1.0,2.0,58,0.00,,,0.00,Wunderground v.1.15,2013-03-22 21:57:00,
2013-03-22 18:03:00,34.0,21.2,30.02,ENE,67,1.0,2.0,59,0.00,,,0.00,Wunderground v.1.15,2013-03-22 22:03:00,
2013-03-22 18:09:00,34.0,21.2,30.02,SE,130,1.0,2.0,59,0.00,,,0.00,Wunderground v.1.15,2013-03-22 22:09:00,
2013-03-22 18:14:00,33.9,21.1,30.02,ESE,102,0.0,3.0,59,0.00,,,0.00,Wunderground v.1.15,2013-03-22 22:14:00,
2013-03-22 18:20:00,33.9,21.1,30.03,East,101,1.0,1.0,59,0.00,,,0.00,Wunderground v.1.15,2013-03-22 22:20:00,
2013-03-22 18:25:00,33.8,20.6,30.02,ESE,104,1.0,3.0,58,0.00,,,0.00,Wunderground v.1.15,2013-03-22 22:25:00,
2013-03-22 18:30:00,33.7,20.9,30.02,ESE,103,0.0,0.0,59,0.00,,,0.00,Wunderground v.1.15,2013-03-22 22:30:00,
2013-03-22 18:36:00,33.8,20.6,30.02,East,92,0.0,2.0,58,0.00,,,0.00,Wunderground v.1.15,2013-03-22 22:36:00,
2013-03-22 18:42:00,33.6,20.8,30.02,SSE,157,1.0,4.0,59,0.00,,,0.00,Wunderground v.1.15,2013-03-22 22:42:00,
2013-03-22 18:47:00,33.4,20.6,30.02,WNW,301,1.0,4.0,59,0.00,,,0.00,Wunderground v.1.15,2013-03-22 22:47:00,
2013-03-22 18:53:00,33.1,20.7,30.02,South,172,0.0,0.0,60,0.00,,,0.00,Wunderground v.1.15,2013-03-22 22:53:00,
2013-03-22 18:58:00,32.9,20.9,30.02,East,90,0.0,0.0,61,0.00,,,0.00,Wunderground v.1.15,2013-03-22 22:58:00,
2013-03-22 19:04:00,32.6,20.6,30.02,East,85,0.0,0.0,61,0.00,,,0.00,Wunderground v.1.15,2013-03-22 23:04:00,
2013-03-22 19:09:00,32.4,20.8,30.02,East,85,0.0,1.0,62,0.00,,,0.00,Wunderground v.1.15,2013-03-22 23:09:00,
2013-03-22 19:15:00,32.1,20.9,30.03,ENE,68,0.0,3.0,63,0.00,,,0.00,Wunderground v.1.15,2013-03-22 23:15:00,
2013-03-22 19:20:00,31.9,20.7,30.03,ENE,68,0.0,0.0,63,0.00,,,0.00,Wunderground v.1.15,2013-03-22 23:20:00,
2013-03-22 19:25:00,31.7,20.5,30.03,ENE,68,0.0,0.0,63,0.00,,,0.00,Wunderground v.1.15,2013-03-22 23:25:00,
2013-03-22 19:31:00,31.4,21.3,30.03,ENE,68,0.0,0.0,66,0.00,,,0.00,Wunderground v.1.15,2013-03-22 23:31:00,
2013-03-22 19:37:00,31.0,22.0,30.03,ENE,68,0.0,0.0,69,0.00,,,0.00,Wunderground v.1.15,2013-03-22 23:37:00,
2013-03-22 19:42:00,30.5,21.2,30.03,ENE,68,0.0,0.0,68,0.00,,,0.00,Wunderground v.1.15,2013-03-22 23:42:00,
2013-03-22 19:48:00,30.0,20.7,30.03,ENE,68,0.0,0.0,68,0.00,,,0.00,Wunderground v.1.15,2013-03-22 23:48:00,
2013-03-22 19:53:00,29.7,21.1,30.03,ENE,68,0.0,0.0,70,0.00,,,0.00,Wunderground v.1.15,2013-03-22 23:53:00,
2013-03-22 19:59:00,29.5,20.9,30.03,ENE,68,0.0,0.0,70,0.00,,,0.00,Wunderground v.1.15,2013-03-22 23:59:00,
2013-03-22 20:05:00,29.1,20.9,30.03,ENE,68,0.0,0.0,71,0.00,,,0.00,Wunderground v.1.15,2013-03-23 00:05:00,
2013-03-22 20:10:00,28.8,20.9,30.04,ENE,68,0.0,0.0,72,0.00,,,0.00,Wunderground v.1.15,2013-03-23 00:10:00,
2013-03-22 20:16:00,28.6,21.0,30.04,ENE,68,0.0,0.0,73,0.00,,,0.00,Wunderground v.1.15,2013-03-23 00:16:00,
2013-03-22 20:21:00,28.4,21.2,30.04,ENE,68,0.0,0.0,74,0.00,,,0.00,Wunderground v.1.15,2013-03-23 00:21:00,
2013-03-22 20:27:00,28.2,21.3,30.04,ENE,68,0.0,0.0,75,0.00,,,0.00,Wunderground v.1.15,2013-03-23 00:27:00,
2013-03-22 20:32:00,28.0,21.1,30.04,ENE,68,0.0,0.0,75,0.00,,,0.00,Wunderground v.1.15,2013-03-23 00:32:00,
2013-03-22 20:37:00,27.8,21.2,30.04,ENE,68,0.0,0.0,76,0.00,,,0.00,Wunderground v.1.15,2013-03-23 00:37:00,
2013-03-22 20:43:00,27.6,21.3,30.04,ENE,68,0.0,0.0,77,0.00,,,0.00,Wunderground v.1.15,2013-03-23 00:43:00,
2013-03-22 20:48:00,27.4,21.1,30.04,ENE,68,0.0,0.0,77,0.00,,,0.00,Wunderground v.1.15,2013-03-23 00:48:00,
2013-03-22 20:54:00,27.2,21.2,30.05,ENE,68,0.0,0.0,78,0.00,,,0.00,Wunderground v.1.15,2013-03-23 00:54:00,
2013-03-22 20:59:00,27.0,21.1,30.05,ENE,68,0.0,0.0,78,0.00,,,0.00,Wunderground v.1.15,2013-03-23 00:59:00,
2013-03-22 21:05:00,26.8,21.2,30.05,ENE,68,0.0,0.0,79,0.00,,,0.00,Wunderground v.1.15,2013-03-23 01:05:00,
2013-03-22 21:10:00,26.6,21.0,30.05,ENE,68,0.0,0.0,79,0.00,,,0.00,Wunderground v.1.15,2013-03-23 01:10:00,
2013-03-22 21:15:00,26.5,20.9,30.05,ENE,68,0.0,0.0,79,0.00,,,0.00,Wunderground v.1.15,2013-03-23 01:15:00,
2013-03-22 21:21:00,26.3,21.0,30.05,ENE,68,0.0,0.0,80,0.00,,,0.00,Wunderground v.1.15,2013-03-23 01:21:00,
2013-03-22 21:28:00,26.0,20.7,30.05,ENE,68,0.0,0.0,80,0.00,,,0.00,Wunderground v.1.15,2013-03-23 01:28:00,
2013-03-22 21:34:00,25.8,20.5,30.05,ENE,68,0.0,0.0,80,0.00,,,0.00,Wunderground v.1.15,2013-03-23 01:34:00,
2013-03-22 21:39:00,25.6,20.6,30.05,ENE,68,0.0,0.0,81,0.00,,,0.00,Wunderground v.1.15,2013-03-23 01:39:00,
2013-03-22 21:44:00,25.4,20.4,30.06,ENE,68,0.0,0.0,81,0.00,,,0.00,Wunderground v.1.15,2013-03-23 01:44:00,
2013-03-22 21:49:00,25.3,20.6,30.05,ENE,68,0.0,0.0,82,0.00,,,0.00,Wunderground v.1.15,2013-03-23 01:49:00,
2013-03-22 21:55:00,25.1,20.7,30.05,ENE,68,0.0,0.0,83,0.00,,,0.00,Wunderground v.1.15,2013-03-23 01:55:00,
2013-03-22 22:00:00,24.9,20.5,30.06,ENE,68,0.0,0.0,83,0.00,,,0.00,Wunderground v.1.15,2013-03-23 02:00:00,
2013-03-22 22:06:00,24.8,20.4,30.06,ENE,68,0.0,0.0,83,0.00,,,0.00,Wunderground v.1.15,2013-03-23 02:06:00,
2013-03-22 22:12:00,24.7,20.3,30.06,ENE,68,0.0,0.0,83,0.00,,,0.00,Wunderground v.1.15,2013-03-23 02:12:00,
2013-03-22 22:18:00,24.5,20.1,30.06,ENE,68,0.0,0.0,83,0.00,,,0.00,Wunderground v.1.15,2013-03-23 02:18:00,
2013-03-22 22:24:00,24.4,20.3,30.06,ENE,68,0.0,0.0,84,0.00,,,0.00,Wunderground v.1.15,2013-03-23 02:24:00,
2013-03-22 22:29:00,24.2,20.1,30.06,ENE,68,0.0,0.0,84,0.00,,,0.00,Wunderground v.1.15,2013-03-23 02:29:00,
2013-03-22 22:34:00,24.0,19.9,30.06,ENE,68,0.0,0.0,84,0.00,,,0.00,Wunderground v.1.15,2013-03-23 02:34:00,
2013-03-22 22:40:00,23.9,20.0,30.06,ENE,68,0.0,0.0,85,0.00,,,0.00,Wunderground v.1.15,2013-03-23 02:40:00,
2013-03-22 22:45:00,23.8,19.9,30.05,ENE,68,0.0,0.0,85,0.00,,,0.00,Wunderground v.1.15,2013-03-23 02:45:00,
2013-03-22 22:50:00,23.7,19.9,30.06,ENE,68,0.0,0.0,85,0.00,,,0.00,Wunderground v.1.15,2013-03-23 02:50:00,
2013-03-22 22:56:00,23.5,19.7,30.06,ENE,68,0.0,0.0,85,0.00,,,0.00,Wunderground v.1.15,2013-03-23 02:56:00,
2013-03-22 23:02:00,23.4,19.8,30.06,ENE,68,0.0,0.0,86,0.00,,,0.00,Wunderground v.1.15,2013-03-23 03:02:00,
2013-03-22 23:08:00,23.3,19.7,30.06,ENE,68,0.0,0.0,86,0.00,,,0.00,Wunderground v.1.15,2013-03-23 03:08:00,
2013-03-22 23:14:00,23.2,19.6,30.06,ENE,68,0.0,0.0,86,0.00,,,0.00,Wunderground v.1.15,2013-03-23 03:14:00,
2013-03-22 23:19:00,23.1,19.5,30.06,ENE,68,0.0,0.0,86,0.00,,,0.00,Wunderground v.1.15,2013-03-23 03:19:00,
2013-03-22 23:25:00,23.1,19.5,30.06,ENE,68,0.0,0.0,86,0.00,,,0.00,Wunderground v.1.15,2013-03-23 03:25:00,
2013-03-22 23:31:00,23.1,19.8,30.07,ENE,68,0.0,0.0,87,0.00,,,0.00,Wunderground v.1.15,2013-03-23 03:31:00,
2013-03-22 23:37:00,23.0,19.7,30.07,ENE,68,0.0,0.0,87,0.00,,,0.00,Wunderground v.1.15,2013-03-23 03:37:00,
2013-03-22 23:42:00,23.0,19.7,30.07,ENE,68,0.0,0.0,87,0.00,,,0.00,Wunderground v.1.15,2013-03-23 03:42:00,
2013-03-22 23:48:00,22.9,19.6,30.07,ENE,68,0.0,0.0,87,0.00,,,0.00,Wunderground v.1.15,2013-03-23 03:48:00,
2013-03-22 23:53:00,22.8,19.5,30.06,ENE,68,0.0,0.0,87,0.00,,,0.00,Wunderground v.1.15,2013-03-23 03:53:00,
2013-03-22 23:58:00,22.7,19.4,30.06,ENE,68,0.0,0.0,87,0.00,,,0.00,Wunderground v.1.15,2013-03-23 03:58:00,